Weather reports worldwide

Advertisment
Priekuli, Latvia (26335): temperature & dewpoint: 29.05.2020 19:00:00 - 04.06.2020 19:00:00 (EEST)Priekuli, Latvia (26335): wind speed & gusts: 29.05.2020 19:00:00 - 04.06.2020 19:00:00 (EEST)Priekuli, Latvia (26335): wind direction: 29.05.2020 19:00:00 - 04.06.2020 19:00:00 (EEST)Priekuli, Latvia (26335): reduced air pressure: 29.05.2020 19:00:00 - 04.06.2020 19:00:00 (EEST)Priekuli, Latvia (26335): visibility: 29.05.2020 19:00:00 - 04.06.2020 19:00:00 (EEST)Priekuli, Latvia (26335): precipitation: 29.05.2020 19:00:00 - 04.06.2020 19:00:00 (EEST)
Date & Time tt [°C] td [°C] ff [km/h] ff [kn] fx [km/h] fx [kn] dd ppp [hPa] vv [km] rr [mm]
04.06.2020 19:00:00 15,7 10,9 29 16 22 12 - 1000,1 - -
04.06.2020 18:00:00 15,8 11,9 13 7 20 11 NW 1000,5 20 0,0
04.06.2020 17:00:00 16,4 12,2 29 16 22 12 - 1000,9 - -
04.06.2020 16:00:00 14,8 11,8 22 12 18 10 - 1001,1 - -
04.06.2020 15:00:00 14,5 11,6 11 6 18 10 N 1001,4 20 0,0
04.06.2020 14:00:00 14,8 11,4 32 18 22 12 N 1002,2 20 -
04.06.2020 13:00:00 14,8 10,6 18 10 7 4 N 1002,5 20 -
04.06.2020 12:00:00 15,1 11,0 2 1 8 5 S 1002,9 20 0,0
04.06.2020 11:00:00 13,8 10,4 4 2 11 6 E 1003,4 20 -
04.06.2020 10:00:00 13,6 10,6 29 16 11 6 N 1003,7 20 -
04.06.2020 09:00:00 13,1 11,1 2 1 10 6 ENE 1003,8 20 0,0
04.06.2020 08:00:00 11,8 10,7 29 16 14 8 - 1004,5 20 -
04.06.2020 07:00:00 11,2 10,1 14 8 11 6 - 1005,0 - -
04.06.2020 06:00:00 10,5 9,2 3 2 8 5 - 1005,4 - 0,0
04.06.2020 05:00:00 10,3 8,7 29 16 11 6 NE 1006,3 20 -
04.06.2020 04:00:00 10,3 8,4 7 4 11 6 E 1006,5 20 -
04.06.2020 03:00:00 10,6 8,3 4 2 9 5 ENE 1006,7 20 0,0
04.06.2020 02:00:00 11,0 8,2 4 2 7 4 E 1007,5 20 -
04.06.2020 01:00:00 11,0 8,0 4 2 11 6 E 1008,1 20 -
04.06.2020 00:00:00 11,9 7,9 3 2 12 6 E 1008,1 20 0,0
03.06.2020 23:00:00 13,1 8,0 32 18 14 8 NE 1008,5 20 -
03.06.2020 22:00:00 13,7 7,5 22 12 14 8 - 1008,6 20 -
03.06.2020 21:00:00 14,3 7,0 8 4 16 9 E 1008,6 20 0,0
03.06.2020 20:00:00 14,7 7,0 32 18 22 12 E 1009,0 20 -
03.06.2020 19:00:00 15,2 7,2 7 4 22 12 E 1008,9 20 -
03.06.2020 18:00:00 15,2 7,2 10 5 21 11 E 1009,1 20 0,0
03.06.2020 17:00:00 14,7 6,8 22 12 25 14 NE 1009,3 20 -
03.06.2020 16:00:00 14,8 6,4 32 18 25 14 E 1009,7 20 -
03.06.2020 15:00:00 14,9 6,1 9 5 23 12 ENE 1009,8 20 0,0
03.06.2020 14:00:00 14,1 5,7 7 4 25 14 E 1010,5 20 -
03.06.2020 13:00:00 14,7 6,0 11 6 30 16 E 1010,6 20 -
03.06.2020 12:00:00 14,4 4,9 16 8 30 16 ENE 1010,6 20 0,0
03.06.2020 11:00:00 13,7 4,0 11 6 32 18 - 1010,6 20 -
03.06.2020 10:00:00 14,3 4,3 25 14 29 16 E 1010,5 20 -
03.06.2020 09:00:00 12,8 4,4 9 5 16 9 ENE 1011,2 20 0,0
03.06.2020 08:00:00 9,6 3,1 14 8 14 8 E 1012,1 20 -
03.06.2020 07:00:00 7,8 2,5 25 14 11 6 NE 1012,1 20 -
03.06.2020 06:00:00 6,1 1,6 4 2 11 6 ENE 1012,1 20 0,0
03.06.2020 05:00:00 5,5 1,6 18 10 11 6 - 1012,3 20 -
03.06.2020 04:00:00 6,0 1,5 7 4 11 6 - 1012,6 20 -
03.06.2020 03:00:00 7,3 1,5 4 2 9 5 ENE 1012,6 20 0,0
03.06.2020 02:00:00 8,1 1,7 4 2 7 4 - 1013,1 20 -
03.06.2020 01:00:00 8,6 1,5 18 10 7 4 - 1013,4 - -
03.06.2020 00:00:00 9,0 2,3 2 1 5 3 NE 1013,6 20 0,0
02.06.2020 23:00:00 10,6 1,4 22 12 14 8 NE 1013,6 20 -
02.06.2020 22:00:00 12,2 1,5 22 12 29 16 E 1013,6 20 -
02.06.2020 21:00:00 14,5 -0,1 9 5 27 15 ENE 1013,4 20 0,0
02.06.2020 20:00:00 15,9 0,8 14 8 29 16 NE 1013,5 20 -
02.06.2020 19:00:00 16,3 0,8 14 8 29 16 - 1013,6 20 -
02.06.2020 18:00:00 16,3 1,1 16 9 29 16 NNE 1014,1 20 0,0
02.06.2020 17:00:00 16,6 2,2 4 2 32 18 - 1014,6 - -
02.06.2020 16:00:00 16,7 1,9 25 14 32 18 - 1015,0 - -
02.06.2020 15:00:00 16,7 2,2 14 8 32 17 NNE 1015,7 20 0,0
02.06.2020 14:00:00 15,7 2,5 14 8 32 18 NE 1016,4 20 -
02.06.2020 13:00:00 15,3 2,8 32 18 32 18 N 1016,8 20 -
02.06.2020 12:00:00 14,0 2,8 13 7 33 18 NNE 1017,5 20 0,0
02.06.2020 11:00:00 14,2 4,5 18 10 25 14 NE 1018,4 20 -
02.06.2020 10:00:00 11,4 3,9 22 12 18 10 NE 1019,0 20 -
02.06.2020 09:00:00 9,9 3,6 6 3 17 9 NE 1019,1 20 0,0
02.06.2020 08:00:00 8,6 3,2 22 12 18 10 - 1019,5 - -
02.06.2020 07:00:00 6,5 2,4 14 8 18 10 - 1019,8 - -
02.06.2020 06:00:00 5,4 1,6 5 3 12 7 NE 1020,1 20 0,0
02.06.2020 05:00:00 4,3 1,5 4 2 11 6 N 1020,3 20 -
02.06.2020 04:00:00 4,8 1,5 32 18 11 6 N 1020,7 20 -
02.06.2020 03:00:00 5,4 1,6 5 3 9 5 NE 1020,7 20 0,0
02.06.2020 02:00:00 6,2 1,9 4 2 11 6 NE 1021,2 20 -
02.06.2020 01:00:00 7,0 2,3 4 2 11 6 NE 1021,4 20 -
02.06.2020 00:00:00 8,5 2,2 5 3 12 6 NE 1021,3 20 0,0
01.06.2020 23:00:00 9,7 2,5 32 18 25 14 - 1021,1 20 -
01.06.2020 22:00:00 10,8 2,4 14 8 32 18 - 1020,8 - -
01.06.2020 21:00:00 12,1 1,9 12 6 31 17 - 1020,6 - 0,0
01.06.2020 20:00:00 13,0 1,9 18 10 32 18 - 1020,3 - -
01.06.2020 19:00:00 13,9 2,2 4 2 32 18 NE 1020,0 20 -
01.06.2020 18:00:00 14,6 3,3 14 8 31 17 NE 1019,9 20 0,0
01.06.2020 17:00:00 15,7 4,1 22 12 32 18 N 1020,2 20 -
01.06.2020 16:00:00 15,6 2,4 14 8 32 18 NE 1020,4 20 -
01.06.2020 15:00:00 15,5 3,2 15 8 31 17 N 1020,6 20 0,0
01.06.2020 14:00:00 16,1 3,8 14 8 40 21 N 1021,1 20 -
01.06.2020 13:00:00 15,6 2,7 25 14 40 21 - 1021,6 20 -
01.06.2020 12:00:00 15,3 4,6 16 9 29 16 N 1022,6 20 0,0
01.06.2020 11:00:00 13,6 2,8 7 4 29 16 - 1022,8 20 -
01.06.2020 10:00:00 12,9 2,2 11 6 22 12 - 1023,2 20 -
01.06.2020 09:00:00 12,1 2,2 10 5 17 9 N 1023,6 20 0,0
01.06.2020 08:00:00 10,4 3,7 22 12 11 6 N 1023,9 20 -
01.06.2020 07:00:00 8,1 3,0 14 8 7 4 N 1024,0 20 -
01.06.2020 06:00:00 6,7 2,9 4 2 7 4 - 1024,1 - 0,0
01.06.2020 05:00:00 5,5 2,3 32 18 11 6 - 1024,2 - -
01.06.2020 04:00:00 6,1 2,2 25 14 14 8 - 1024,2 - -
01.06.2020 03:00:00 8,6 2,1 5 3 13 7 NNE 1024,0 20 0,0
01.06.2020 02:00:00 8,1 2,1 4 2 11 6 - 1023,9 20 -
01.06.2020 01:00:00 7,7 2,8 29 16 14 8 - 1023,9 20 -
01.06.2020 00:00:00 10,7 2,0 6 3 13 7 N 1023,7 20 0,0
31.05.2020 23:00:00 11,9 1,8 7 4 29 16 N 1023,5 20 -
31.05.2020 22:00:00 13,1 1,4 29 16 32 18 N 1023,0 20 -
31.05.2020 21:00:00 14,6 0,7 12 7 34 18 NNE 1022,6 20 0,0
31.05.2020 20:00:00 15,6 0,2 18 10 43 23 N 1022,3 20 -
31.05.2020 19:00:00 16,3 -0,9 7 4 43 23 N 1022,0 20 -
31.05.2020 18:00:00 17,4 0,4 19 10 45 24 N 1021,5 20 0,0
31.05.2020 17:00:00 17,8 -1,5 4 2 47 25 NE 1021,6 20 -
31.05.2020 16:00:00 18,2 -1,1 7 4 43 23 - 1021,4 20 -
31.05.2020 15:00:00 18,1 0,6 19 10 42 23 NNE 1021,5 20 0,0
31.05.2020 14:00:00 18,1 2,0 18 10 40 21 NE 1021,6 20 -
31.05.2020 13:00:00 17,5 1,5 18 10 47 25 NE 1022,0 20 -
31.05.2020 12:00:00 16,7 1,5 19 10 46 25 NE 1022,4 20 0,0
31.05.2020 11:00:00 16,2 2,6 29 16 50 27 NE 1022,3 20 -
31.05.2020 10:00:00 - - - - - - - - - -
31.05.2020 09:00:00 - - - - - - - - - -
31.05.2020 08:00:00 13,1 4,8 14 8 32 18 NE 1021,2 20 -
31.05.2020 07:00:00 12,0 4,2 11 6 25 14 - 1021,2 20 -
31.05.2020 06:00:00 10,6 3,8 9 5 22 12 N 1021,3 20 0,0
31.05.2020 05:00:00 10,3 3,6 22 12 25 14 - 1021,2 - -
31.05.2020 04:00:00 11,2 3,5 22 12 25 14 - 1020,8 - -
31.05.2020 03:00:00 11,9 3,3 10 5 26 14 - 1020,5 - 0,0
31.05.2020 02:00:00 12,9 3,3 18 10 32 18 NE 1020,4 20 -
31.05.2020 01:00:00 13,2 3,3 32 18 29 16 NE 1020,3 20 -
31.05.2020 00:00:00 14,0 3,7 14 8 30 16 - 1019,9 - 0,0
30.05.2020 23:00:00 14,5 4,5 25 14 36 19 - 1019,6 - -
30.05.2020 22:00:00 15,3 4,4 32 18 36 19 - 1019,2 - -
30.05.2020 21:00:00 16,4 4,7 15 8 36 19 NNE 1019,0 20 0,0
30.05.2020 20:00:00 17,7 4,6 22 12 47 25 - 1018,6 - -
30.05.2020 19:00:00 18,4 3,8 29 16 44 24 - 1018,4 - -
30.05.2020 18:00:00 18,7 4,0 18 10 44 24 NNE 1018,5 20 0,0
30.05.2020 17:00:00 18,4 3,4 18 10 47 25 NE 1018,8 20 -
30.05.2020 16:00:00 18,9 2,7 14 8 43 23 NE 1019,4 20 -
30.05.2020 15:00:00 19,0 2,3 18 10 44 24 NNE 1019,7 20 0,0
30.05.2020 14:00:00 19,1 3,3 32 18 43 23 N 1020,4 20 -
30.05.2020 13:00:00 18,3 2,6 25 14 50 27 NE 1020,8 20 -
30.05.2020 12:00:00 17,9 1,3 18 10 50 27 NNE 1021,0 20 0,0
30.05.2020 11:00:00 16,9 1,7 14 8 43 23 - 1021,2 20 -
30.05.2020 10:00:00 15,9 4,3 32 18 25 14 - 1021,6 - -
30.05.2020 09:00:00 13,6 4,7 10 5 19 11 - 1022,2 - 0,0
30.05.2020 08:00:00 10,9 4,6 11 6 14 8 N 1023,1 20 -
30.05.2020 07:00:00 9,3 3,7 18 10 14 8 N 1023,2 20 -
30.05.2020 06:00:00 7,6 2,4 4 2 11 6 NNE 1023,0 20 0,0
30.05.2020 05:00:00 6,9 1,8 11 6 14 8 N 1023,2 20 -
30.05.2020 04:00:00 5,4 1,3 18 10 14 8 N 1023,6 20 -
30.05.2020 03:00:00 7,3 0,9 8 5 13 7 NNW 1023,4 20 0,0
30.05.2020 02:00:00 9,5 0,4 7 4 18 10 N 1023,5 20 -
30.05.2020 01:00:00 10,6 0,3 32 18 18 10 - 1023,1 20 -
30.05.2020 00:00:00 10,9 0,5 9 5 14 8 N 1023,0 20 0,0
29.05.2020 23:00:00 12,4 0,5 29 16 18 10 N 1022,8 20 -
29.05.2020 22:00:00 13,8 0,1 7 4 25 14 N 1023,0 20 -
29.05.2020 21:00:00 15,1 0,4 10 6 23 13 N 1022,2 20 0,0
29.05.2020 20:00:00 16,4 0,1 4 2 36 19 N 1022,2 20 -
29.05.2020 19:00:00 17,1 0,3 11 6 36 19 N 1021,9 20 -

tt = temperature
td = dewpoint
ff = wind speed
fx = gusts
dd = wind direction
ppp = reduced air pressure
vv = visibility
rr = precipitation

Next stations